Index of /20260503/WXO-DD/model_rdps/10km/12/072
Name Last modified Size Description
Parent Directory -
20260503T12Z_MSC_RDPS_AbsoluteVorticity_IsbL-0250_RLatLon0.09_PT072H.grib2 2026-05-03 15:14 601K
20260503T12Z_MSC_RDPS_AbsoluteVorticity_IsbL-0500_RLatLon0.09_PT072H.grib2 2026-05-03 15:14 562K
20260503T12Z_MSC_RDPS_AbsoluteVorticity_IsbL-0700_RLatLon0.09_PT072H.grib2 2026-05-03 15:14 604K
20260503T12Z_MSC_RDPS_AbsoluteVorticity_IsbL-0850_RLatLon0.09_PT072H.grib2 2026-05-03 15:14 789K
20260503T12Z_MSC_RDPS_AirTemp_AGL-120m_RLatLon0.09_PT072H.grib2 2026-05-03 15:14 380K
20260503T12Z_MSC_RDPS_AirTemp_AGL-2m_RLatLon0.09_PT072H.grib2 2026-05-03 15:14 625K
20260503T12Z_MSC_RDPS_AirTemp_AGL-40m_RLatLon0.09_PT072H.grib2 2026-05-03 15:14 395K
20260503T12Z_MSC_RDPS_AirTemp_AGL-80m_RLatLon0.09_PT072H.grib2 2026-05-03 15:14 387K
20260503T12Z_MSC_RDPS_AirTemp_IsbL-0001_RLatLon0.09_PT072H.grib2 2026-05-03 15:14 310K
20260503T12Z_MSC_RDPS_AirTemp_IsbL-0005_RLatLon0.09_PT072H.grib2 2026-05-03 15:14 288K
20260503T12Z_MSC_RDPS_AirTemp_IsbL-0010_RLatLon0.09_PT072H.grib2 2026-05-03 15:14 390K
20260503T12Z_MSC_RDPS_AirTemp_IsbL-0020_RLatLon0.09_PT072H.grib2 2026-05-03 15:14 318K
20260503T12Z_MSC_RDPS_AirTemp_IsbL-0030_RLatLon0.09_PT072H.grib2 2026-05-03 15:14 335K
20260503T12Z_MSC_RDPS_AirTemp_IsbL-0050_RLatLon0.09_PT072H.grib2 2026-05-03 15:14 315K
20260503T12Z_MSC_RDPS_AirTemp_IsbL-0100_RLatLon0.09_PT072H.grib2 2026-05-03 15:14 421K
20260503T12Z_MSC_RDPS_AirTemp_IsbL-0150_RLatLon0.09_PT072H.grib2 2026-05-03 15:14 412K
20260503T12Z_MSC_RDPS_AirTemp_IsbL-0175_RLatLon0.09_PT072H.grib2 2026-05-03 15:14 405K
20260503T12Z_MSC_RDPS_AirTemp_IsbL-0200_RLatLon0.09_PT072H.grib2 2026-05-03 15:14 409K
20260503T12Z_MSC_RDPS_AirTemp_IsbL-0225_RLatLon0.09_PT072H.grib2 2026-05-03 15:14 411K
20260503T12Z_MSC_RDPS_AirTemp_IsbL-0250_RLatLon0.09_PT072H.grib2 2026-05-03 15:14 418K
20260503T12Z_MSC_RDPS_AirTemp_IsbL-0275_RLatLon0.09_PT072H.grib2 2026-05-03 15:14 399K
20260503T12Z_MSC_RDPS_AirTemp_IsbL-0300_RLatLon0.09_PT072H.grib2 2026-05-03 15:14 407K
20260503T12Z_MSC_RDPS_AirTemp_IsbL-0350_RLatLon0.09_PT072H.grib2 2026-05-03 15:14 424K
20260503T12Z_MSC_RDPS_AirTemp_IsbL-0400_RLatLon0.09_PT072H.grib2 2026-05-03 15:14 428K
20260503T12Z_MSC_RDPS_AirTemp_IsbL-0450_RLatLon0.09_PT072H.grib2 2026-05-03 15:14 433K
20260503T12Z_MSC_RDPS_AirTemp_IsbL-0500_RLatLon0.09_PT072H.grib2 2026-05-03 15:14 441K
20260503T12Z_MSC_RDPS_AirTemp_IsbL-0550_RLatLon0.09_PT072H.grib2 2026-05-03 15:14 457K
20260503T12Z_MSC_RDPS_AirTemp_IsbL-0600_RLatLon0.09_PT072H.grib2 2026-05-03 15:14 439K
20260503T12Z_MSC_RDPS_AirTemp_IsbL-0650_RLatLon0.09_PT072H.grib2 2026-05-03 15:14 454K
20260503T12Z_MSC_RDPS_AirTemp_IsbL-0700_RLatLon0.09_PT072H.grib2 2026-05-03 15:14 477K
20260503T12Z_MSC_RDPS_AirTemp_IsbL-0750_RLatLon0.09_PT072H.grib2 2026-05-03 15:14 518K
20260503T12Z_MSC_RDPS_AirTemp_IsbL-0800_RLatLon0.09_PT072H.grib2 2026-05-03 15:14 571K
20260503T12Z_MSC_RDPS_AirTemp_IsbL-0850_RLatLon0.09_PT072H.grib2 2026-05-03 15:14 641K
20260503T12Z_MSC_RDPS_AirTemp_IsbL-0875_RLatLon0.09_PT072H.grib2 2026-05-03 15:14 533K
20260503T12Z_MSC_RDPS_AirTemp_IsbL-0900_RLatLon0.09_PT072H.grib2 2026-05-03 15:14 538K
20260503T12Z_MSC_RDPS_AirTemp_IsbL-0925_RLatLon0.09_PT072H.grib2 2026-05-03 15:14 666K
20260503T12Z_MSC_RDPS_AirTemp_IsbL-0950_RLatLon0.09_PT072H.grib2 2026-05-03 15:14 659K
20260503T12Z_MSC_RDPS_AirTemp_IsbL-0970_RLatLon0.09_PT072H.grib2 2026-05-03 15:14 519K
20260503T12Z_MSC_RDPS_AirTemp_IsbL-0985_RLatLon0.09_PT072H.grib2 2026-05-03 15:14 635K
20260503T12Z_MSC_RDPS_AirTemp_IsbL-1000_RLatLon0.09_PT072H.grib2 2026-05-03 15:14 491K
20260503T12Z_MSC_RDPS_AirTemp_IsbL-1015_RLatLon0.09_PT072H.grib2 2026-05-03 15:14 497K
20260503T12Z_MSC_RDPS_Albedo_Sfc_RLatLon0.09_PT072H.grib2 2026-05-03 15:14 151K
20260503T12Z_MSC_RDPS_CAPE_Sfc_RLatLon0.09_PT072H.grib2 2026-05-03 15:14 1.7M
20260503T12Z_MSC_RDPS_CIN_Sfc_RLatLon0.09_PT072H.grib2 2026-05-03 15:14 1.1M
20260503T12Z_MSC_RDPS_CloudWater_EAtm_RLatLon0.09_PT072H.grib2 2026-05-03 15:14 221K
20260503T12Z_MSC_RDPS_ConvectivePrecip-Accum_Sfc_RLatLon0.09_PT072H.grib2 2026-05-03 15:14 1.3M
20260503T12Z_MSC_RDPS_DewPointDepression_AGL-2m_RLatLon0.09_PT072H.grib2 2026-05-03 15:14 402K
20260503T12Z_MSC_RDPS_DewPointDepression_IsbL-0001_RLatLon0.09_PT072H.grib2 2026-05-03 15:14 193
20260503T12Z_MSC_RDPS_DewPointDepression_IsbL-0005_RLatLon0.09_PT072H.grib2 2026-05-03 15:14 193
20260503T12Z_MSC_RDPS_DewPointDepression_IsbL-0010_RLatLon0.09_PT072H.grib2 2026-05-03 15:14 193
20260503T12Z_MSC_RDPS_DewPointDepression_IsbL-0020_RLatLon0.09_PT072H.grib2 2026-05-03 15:14 193
20260503T12Z_MSC_RDPS_DewPointDepression_IsbL-0030_RLatLon0.09_PT072H.grib2 2026-05-03 15:14 193
20260503T12Z_MSC_RDPS_DewPointDepression_IsbL-0050_RLatLon0.09_PT072H.grib2 2026-05-03 15:14 79K
20260503T12Z_MSC_RDPS_DewPointDepression_IsbL-0100_RLatLon0.09_PT072H.grib2 2026-05-03 15:14 110K
20260503T12Z_MSC_RDPS_DewPointDepression_IsbL-0150_RLatLon0.09_PT072H.grib2 2026-05-03 15:14 139K
20260503T12Z_MSC_RDPS_DewPointDepression_IsbL-0175_RLatLon0.09_PT072H.grib2 2026-05-03 15:14 183K
20260503T12Z_MSC_RDPS_DewPointDepression_IsbL-0200_RLatLon0.09_PT072H.grib2 2026-05-03 15:14 219K
20260503T12Z_MSC_RDPS_DewPointDepression_IsbL-0225_RLatLon0.09_PT072H.grib2 2026-05-03 15:14 252K
20260503T12Z_MSC_RDPS_DewPointDepression_IsbL-0250_RLatLon0.09_PT072H.grib2 2026-05-03 15:14 296K
20260503T12Z_MSC_RDPS_DewPointDepression_IsbL-0275_RLatLon0.09_PT072H.grib2 2026-05-03 15:14 309K
20260503T12Z_MSC_RDPS_DewPointDepression_IsbL-0300_RLatLon0.09_PT072H.grib2 2026-05-03 15:14 327K
20260503T12Z_MSC_RDPS_DewPointDepression_IsbL-0350_RLatLon0.09_PT072H.grib2 2026-05-03 15:14 333K
20260503T12Z_MSC_RDPS_DewPointDepression_IsbL-0400_RLatLon0.09_PT072H.grib2 2026-05-03 15:14 341K
20260503T12Z_MSC_RDPS_DewPointDepression_IsbL-0450_RLatLon0.09_PT072H.grib2 2026-05-03 15:14 343K
20260503T12Z_MSC_RDPS_DewPointDepression_IsbL-0500_RLatLon0.09_PT072H.grib2 2026-05-03 15:14 345K
20260503T12Z_MSC_RDPS_DewPointDepression_IsbL-0550_RLatLon0.09_PT072H.grib2 2026-05-03 15:14 354K
20260503T12Z_MSC_RDPS_DewPointDepression_IsbL-0600_RLatLon0.09_PT072H.grib2 2026-05-03 15:14 362K
20260503T12Z_MSC_RDPS_DewPointDepression_IsbL-0650_RLatLon0.09_PT072H.grib2 2026-05-03 15:14 365K
20260503T12Z_MSC_RDPS_DewPointDepression_IsbL-0700_RLatLon0.09_PT072H.grib2 2026-05-03 15:14 374K
20260503T12Z_MSC_RDPS_DewPointDepression_IsbL-0750_RLatLon0.09_PT072H.grib2 2026-05-03 15:14 396K
20260503T12Z_MSC_RDPS_DewPointDepression_IsbL-0800_RLatLon0.09_PT072H.grib2 2026-05-03 15:14 432K
20260503T12Z_MSC_RDPS_DewPointDepression_IsbL-0850_RLatLon0.09_PT072H.grib2 2026-05-03 15:14 481K
20260503T12Z_MSC_RDPS_DewPointDepression_IsbL-0875_RLatLon0.09_PT072H.grib2 2026-05-03 15:14 480K
20260503T12Z_MSC_RDPS_DewPointDepression_IsbL-0900_RLatLon0.09_PT072H.grib2 2026-05-03 15:14 463K
20260503T12Z_MSC_RDPS_DewPointDepression_IsbL-0925_RLatLon0.09_PT072H.grib2 2026-05-03 15:14 448K
20260503T12Z_MSC_RDPS_DewPointDepression_IsbL-0950_RLatLon0.09_PT072H.grib2 2026-05-03 15:14 437K
20260503T12Z_MSC_RDPS_DewPointDepression_IsbL-0970_RLatLon0.09_PT072H.grib2 2026-05-03 15:14 433K
20260503T12Z_MSC_RDPS_DewPointDepression_IsbL-0985_RLatLon0.09_PT072H.grib2 2026-05-03 15:14 431K
20260503T12Z_MSC_RDPS_DewPointDepression_IsbL-1000_RLatLon0.09_PT072H.grib2 2026-05-03 15:14 429K
20260503T12Z_MSC_RDPS_DewPointDepression_IsbL-1015_RLatLon0.09_PT072H.grib2 2026-05-03 15:14 419K
20260503T12Z_MSC_RDPS_DewPoint_AGL-2m_RLatLon0.09_PT072H.grib2 2026-05-03 15:14 394K
20260503T12Z_MSC_RDPS_DownwardLongwaveRadiationFlux-Accum_Sfc_RLatLon0.09_PT072H.grib2 2026-05-03 15:14 427K
20260503T12Z_MSC_RDPS_DownwardShortwaveRadiationFlux-Accum_NTAtm_RLatLon0.09_PT072H.grib2 2026-05-03 15:14 132K
20260503T12Z_MSC_RDPS_DownwardShortwaveRadiationFlux-Accum_Sfc_RLatLon0.09_PT072H.grib2 2026-05-03 15:14 629K
20260503T12Z_MSC_RDPS_FreezingRain-Accum12h_Sfc_RLatLon0.09_PT072H.grib2 2026-05-03 15:14 89K
20260503T12Z_MSC_RDPS_FreezingRain-Accum1h_Sfc_RLatLon0.09_PT072H.grib2 2026-05-03 15:14 39K
20260503T12Z_MSC_RDPS_FreezingRain-Accum24h_Sfc_RLatLon0.09_PT072H.grib2 2026-05-03 15:14 112K
20260503T12Z_MSC_RDPS_FreezingRain-Accum3h_Sfc_RLatLon0.09_PT072H.grib2 2026-05-03 15:14 50K
20260503T12Z_MSC_RDPS_FreezingRain-Accum6h_Sfc_RLatLon0.09_PT072H.grib2 2026-05-03 15:14 67K
20260503T12Z_MSC_RDPS_FreezingRain-Accum_Sfc_RLatLon0.09_PT072H.grib2 2026-05-03 15:14 203K
20260503T12Z_MSC_RDPS_GeopotentialHeight_IsbL-0001_RLatLon0.09_PT072H.grib2 2026-05-03 15:14 317K
20260503T12Z_MSC_RDPS_GeopotentialHeight_IsbL-0005_RLatLon0.09_PT072H.grib2 2026-05-03 15:14 340K
20260503T12Z_MSC_RDPS_GeopotentialHeight_IsbL-0010_RLatLon0.09_PT072H.grib2 2026-05-03 15:14 307K
20260503T12Z_MSC_RDPS_GeopotentialHeight_IsbL-0020_RLatLon0.09_PT072H.grib2 2026-05-03 15:14 307K
20260503T12Z_MSC_RDPS_GeopotentialHeight_IsbL-0030_RLatLon0.09_PT072H.grib2 2026-05-03 15:14 310K
20260503T12Z_MSC_RDPS_GeopotentialHeight_IsbL-0050_RLatLon0.09_PT072H.grib2 2026-05-03 15:14 310K
20260503T12Z_MSC_RDPS_GeopotentialHeight_IsbL-0100_RLatLon0.09_PT072H.grib2 2026-05-03 15:14 286K
20260503T12Z_MSC_RDPS_GeopotentialHeight_IsbL-0150_RLatLon0.09_PT072H.grib2 2026-05-03 15:14 228K
20260503T12Z_MSC_RDPS_GeopotentialHeight_IsbL-0175_RLatLon0.09_PT072H.grib2 2026-05-03 15:14 231K
20260503T12Z_MSC_RDPS_GeopotentialHeight_IsbL-0200_RLatLon0.09_PT072H.grib2 2026-05-03 15:14 234K
20260503T12Z_MSC_RDPS_GeopotentialHeight_IsbL-0225_RLatLon0.09_PT072H.grib2 2026-05-03 15:14 236K
20260503T12Z_MSC_RDPS_GeopotentialHeight_IsbL-0250_RLatLon0.09_PT072H.grib2 2026-05-03 15:14 236K
20260503T12Z_MSC_RDPS_GeopotentialHeight_IsbL-0275_RLatLon0.09_PT072H.grib2 2026-05-03 15:14 235K
20260503T12Z_MSC_RDPS_GeopotentialHeight_IsbL-0300_RLatLon0.09_PT072H.grib2 2026-05-03 15:14 235K
20260503T12Z_MSC_RDPS_GeopotentialHeight_IsbL-0350_RLatLon0.09_PT072H.grib2 2026-05-03 15:14 232K
20260503T12Z_MSC_RDPS_GeopotentialHeight_IsbL-0400_RLatLon0.09_PT072H.grib2 2026-05-03 15:14 227K
20260503T12Z_MSC_RDPS_GeopotentialHeight_IsbL-0450_RLatLon0.09_PT072H.grib2 2026-05-03 15:14 297K
20260503T12Z_MSC_RDPS_GeopotentialHeight_IsbL-0500_RLatLon0.09_PT072H.grib2 2026-05-03 15:14 292K
20260503T12Z_MSC_RDPS_GeopotentialHeight_IsbL-0550_RLatLon0.09_PT072H.grib2 2026-05-03 15:14 288K
20260503T12Z_MSC_RDPS_GeopotentialHeight_IsbL-0600_RLatLon0.09_PT072H.grib2 2026-05-03 15:14 285K
20260503T12Z_MSC_RDPS_GeopotentialHeight_IsbL-0650_RLatLon0.09_PT072H.grib2 2026-05-03 15:14 255K
20260503T12Z_MSC_RDPS_GeopotentialHeight_IsbL-0700_RLatLon0.09_PT072H.grib2 2026-05-03 15:14 337K
20260503T12Z_MSC_RDPS_GeopotentialHeight_IsbL-0750_RLatLon0.09_PT072H.grib2 2026-05-03 15:14 340K
20260503T12Z_MSC_RDPS_GeopotentialHeight_IsbL-0800_RLatLon0.09_PT072H.grib2 2026-05-03 15:14 349K
20260503T12Z_MSC_RDPS_GeopotentialHeight_IsbL-0850_RLatLon0.09_PT072H.grib2 2026-05-03 15:14 395K
20260503T12Z_MSC_RDPS_GeopotentialHeight_IsbL-0875_RLatLon0.09_PT072H.grib2 2026-05-03 15:14 363K
20260503T12Z_MSC_RDPS_GeopotentialHeight_IsbL-0900_RLatLon0.09_PT072H.grib2 2026-05-03 15:14 367K
20260503T12Z_MSC_RDPS_GeopotentialHeight_IsbL-0925_RLatLon0.09_PT072H.grib2 2026-05-03 15:14 370K
20260503T12Z_MSC_RDPS_GeopotentialHeight_IsbL-0950_RLatLon0.09_PT072H.grib2 2026-05-03 15:14 370K
20260503T12Z_MSC_RDPS_GeopotentialHeight_IsbL-0970_RLatLon0.09_PT072H.grib2 2026-05-03 15:14 374K
20260503T12Z_MSC_RDPS_GeopotentialHeight_IsbL-0985_RLatLon0.09_PT072H.grib2 2026-05-03 15:14 383K
20260503T12Z_MSC_RDPS_GeopotentialHeight_IsbL-1000_RLatLon0.09_PT072H.grib2 2026-05-03 15:14 394K
20260503T12Z_MSC_RDPS_GeopotentialHeight_IsbL-1015_RLatLon0.09_PT072H.grib2 2026-05-03 15:14 410K
20260503T12Z_MSC_RDPS_Humidex_Sfc_RLatLon0.09_PT072H.grib2 2026-05-03 15:14 2.4M
20260503T12Z_MSC_RDPS_IcePellets-Accum12h_Sfc_RLatLon0.09_PT072H.grib2 2026-05-03 15:14 18K
20260503T12Z_MSC_RDPS_IcePellets-Accum1h_Sfc_RLatLon0.09_PT072H.grib2 2026-05-03 15:14 10K
20260503T12Z_MSC_RDPS_IcePellets-Accum24h_Sfc_RLatLon0.09_PT072H.grib2 2026-05-03 15:14 31K
20260503T12Z_MSC_RDPS_IcePellets-Accum3h_Sfc_RLatLon0.09_PT072H.grib2 2026-05-03 15:14 12K
20260503T12Z_MSC_RDPS_IcePellets-Accum6h_Sfc_RLatLon0.09_PT072H.grib2 2026-05-03 15:14 17K
20260503T12Z_MSC_RDPS_IcePellets-Accum_Sfc_RLatLon0.09_PT072H.grib2 2026-05-03 15:14 51K
20260503T12Z_MSC_RDPS_KIndex_Sfc_RLatLon0.09_PT072H.grib2 2026-05-03 15:14 2.5M
20260503T12Z_MSC_RDPS_LatentHeatNetFlux_Sfc_RLatLon0.09_PT072H.grib2 2026-05-03 15:14 433K
20260503T12Z_MSC_RDPS_LiftedIndex-MU-VT_IsbL-0500_RLatLon0.09_PT072H.grib2 2026-05-03 15:14 2.4M
20260503T12Z_MSC_RDPS_NetLongwaveRadiationFlux-Accum_Sfc_RLatLon0.09_PT072H.grib2 2026-05-03 15:14 477K
20260503T12Z_MSC_RDPS_NetShortwaveRadiationFlux-Accum_Sfc_RLatLon0.09_PT072H.grib2 2026-05-03 15:14 628K
20260503T12Z_MSC_RDPS_PlanetaryBoundaryLayerHeight_Sfc_RLatLon0.09_PT072H.grib2 2026-05-03 15:14 1.0M
20260503T12Z_MSC_RDPS_Precip-Accum12h_Sfc_RLatLon0.09_PT072H.grib2 2026-05-03 15:14 1.8M
20260503T12Z_MSC_RDPS_Precip-Accum1h_Sfc_RLatLon0.09_PT072H.grib2 2026-05-03 15:14 1.3M
20260503T12Z_MSC_RDPS_Precip-Accum24h_Sfc_RLatLon0.09_PT072H.grib2 2026-05-03 15:14 2.1M
20260503T12Z_MSC_RDPS_Precip-Accum3h_Sfc_RLatLon0.09_PT072H.grib2 2026-05-03 15:14 1.4M
20260503T12Z_MSC_RDPS_Precip-Accum6h_Sfc_RLatLon0.09_PT072H.grib2 2026-05-03 15:14 1.6M
20260503T12Z_MSC_RDPS_Precip-Accum_Sfc_RLatLon0.09_PT072H.grib2 2026-05-03 15:14 2.2M
20260503T12Z_MSC_RDPS_PrecipRate_Sfc_RLatLon0.09_PT072H.grib2 2026-05-03 15:14 190K
20260503T12Z_MSC_RDPS_PrecipType-Instant_Sfc_RLatLon0.09_PT072H.grib2 2026-05-03 15:14 634K
20260503T12Z_MSC_RDPS_Pressure-Trend3h_Sfc_RLatLon0.09_PT072H.grib2 2026-05-03 15:14 1.2M
20260503T12Z_MSC_RDPS_Pressure_MSL_RLatLon0.09_PT072H.grib2 2026-05-03 15:14 293K
20260503T12Z_MSC_RDPS_Pressure_PVU-1.5_RLatLon0.09_PT072H.grib2 2026-05-03 15:14 2.5M
20260503T12Z_MSC_RDPS_Pressure_PVU-1_RLatLon0.09_PT072H.grib2 2026-05-03 15:14 2.4M
20260503T12Z_MSC_RDPS_Pressure_PVU-2_RLatLon0.09_PT072H.grib2 2026-05-03 15:14 2.4M
20260503T12Z_MSC_RDPS_Pressure_Sfc_RLatLon0.09_PT072H.grib2 2026-05-03 15:14 499K
20260503T12Z_MSC_RDPS_RadiativeTemp_Sfc_RLatLon0.09_PT072H.grib2 2026-05-03 15:14 298K
20260503T12Z_MSC_RDPS_Rain-Accum12h_Sfc_RLatLon0.09_PT072H.grib2 2026-05-03 15:14 1.2M
20260503T12Z_MSC_RDPS_Rain-Accum1h_Sfc_RLatLon0.09_PT072H.grib2 2026-05-03 15:14 593K
20260503T12Z_MSC_RDPS_Rain-Accum24h_Sfc_RLatLon0.09_PT072H.grib2 2026-05-03 15:14 1.5M
20260503T12Z_MSC_RDPS_Rain-Accum3h_Sfc_RLatLon0.09_PT072H.grib2 2026-05-03 15:14 674K
20260503T12Z_MSC_RDPS_Rain-Accum6h_Sfc_RLatLon0.09_PT072H.grib2 2026-05-03 15:14 1.0M
20260503T12Z_MSC_RDPS_Rain-Accum_Sfc_RLatLon0.09_PT072H.grib2 2026-05-03 15:14 1.8M
20260503T12Z_MSC_RDPS_RelativeHumidity_AGL-2m_RLatLon0.09_PT072H.grib2 2026-05-03 15:14 1.0M
20260503T12Z_MSC_RDPS_RelativeHumidity_IsbL-0010_RLatLon0.09_PT072H.grib2 2026-05-03 15:14 679K
20260503T12Z_MSC_RDPS_RelativeHumidity_IsbL-0020_RLatLon0.09_PT072H.grib2 2026-05-03 15:14 648K
20260503T12Z_MSC_RDPS_RelativeHumidity_IsbL-0030_RLatLon0.09_PT072H.grib2 2026-05-03 15:14 599K
20260503T12Z_MSC_RDPS_RelativeHumidity_IsbL-0050_RLatLon0.09_PT072H.grib2 2026-05-03 15:14 360K
20260503T12Z_MSC_RDPS_RelativeHumidity_IsbL-0100_RLatLon0.09_PT072H.grib2 2026-05-03 15:14 269K
20260503T12Z_MSC_RDPS_RelativeHumidity_IsbL-0150_RLatLon0.09_PT072H.grib2 2026-05-03 15:14 411K
20260503T12Z_MSC_RDPS_RelativeHumidity_IsbL-0175_RLatLon0.09_PT072H.grib2 2026-05-03 15:14 476K
20260503T12Z_MSC_RDPS_RelativeHumidity_IsbL-0200_RLatLon0.09_PT072H.grib2 2026-05-03 15:14 550K
20260503T12Z_MSC_RDPS_RelativeHumidity_IsbL-0225_RLatLon0.09_PT072H.grib2 2026-05-03 15:14 610K
20260503T12Z_MSC_RDPS_RelativeHumidity_IsbL-0250_RLatLon0.09_PT072H.grib2 2026-05-03 15:14 679K
20260503T12Z_MSC_RDPS_RelativeHumidity_IsbL-0275_RLatLon0.09_PT072H.grib2 2026-05-03 15:14 711K
20260503T12Z_MSC_RDPS_RelativeHumidity_IsbL-0300_RLatLon0.09_PT072H.grib2 2026-05-03 15:14 759K
20260503T12Z_MSC_RDPS_RelativeHumidity_IsbL-0350_RLatLon0.09_PT072H.grib2 2026-05-03 15:14 781K
20260503T12Z_MSC_RDPS_RelativeHumidity_IsbL-0400_RLatLon0.09_PT072H.grib2 2026-05-03 15:14 791K
20260503T12Z_MSC_RDPS_RelativeHumidity_IsbL-0450_RLatLon0.09_PT072H.grib2 2026-05-03 15:14 794K
20260503T12Z_MSC_RDPS_RelativeHumidity_IsbL-0500_RLatLon0.09_PT072H.grib2 2026-05-03 15:14 793K
20260503T12Z_MSC_RDPS_RelativeHumidity_IsbL-0550_RLatLon0.09_PT072H.grib2 2026-05-03 15:14 807K
20260503T12Z_MSC_RDPS_RelativeHumidity_IsbL-0600_RLatLon0.09_PT072H.grib2 2026-05-03 15:14 832K
20260503T12Z_MSC_RDPS_RelativeHumidity_IsbL-0650_RLatLon0.09_PT072H.grib2 2026-05-03 15:14 832K
20260503T12Z_MSC_RDPS_RelativeHumidity_IsbL-0700_RLatLon0.09_PT072H.grib2 2026-05-03 15:14 854K
20260503T12Z_MSC_RDPS_RelativeHumidity_IsbL-0750_RLatLon0.09_PT072H.grib2 2026-05-03 15:14 895K
20260503T12Z_MSC_RDPS_RelativeHumidity_IsbL-0800_RLatLon0.09_PT072H.grib2 2026-05-03 15:14 972K
20260503T12Z_MSC_RDPS_RelativeHumidity_IsbL-0850_RLatLon0.09_PT072H.grib2 2026-05-03 15:14 1.0M
20260503T12Z_MSC_RDPS_RelativeHumidity_IsbL-0875_RLatLon0.09_PT072H.grib2 2026-05-03 15:14 1.1M
20260503T12Z_MSC_RDPS_RelativeHumidity_IsbL-0900_RLatLon0.09_PT072H.grib2 2026-05-03 15:14 1.1M
20260503T12Z_MSC_RDPS_RelativeHumidity_IsbL-0925_RLatLon0.09_PT072H.grib2 2026-05-03 15:14 1.1M
20260503T12Z_MSC_RDPS_RelativeHumidity_IsbL-0950_RLatLon0.09_PT072H.grib2 2026-05-03 15:14 1.1M
20260503T12Z_MSC_RDPS_RelativeHumidity_IsbL-0970_RLatLon0.09_PT072H.grib2 2026-05-03 15:14 1.1M
20260503T12Z_MSC_RDPS_RelativeHumidity_IsbL-0985_RLatLon0.09_PT072H.grib2 2026-05-03 15:14 1.0M
20260503T12Z_MSC_RDPS_RelativeHumidity_IsbL-1000_RLatLon0.09_PT072H.grib2 2026-05-03 15:14 1.0M
20260503T12Z_MSC_RDPS_RelativeHumidity_IsbL-1015_RLatLon0.09_PT072H.grib2 2026-05-03 15:14 1.0M
20260503T12Z_MSC_RDPS_Runoff-Accum_Sfc_RLatLon0.09_PT072H.grib2 2026-05-03 15:14 67K
20260503T12Z_MSC_RDPS_SWEATIndex_Sfc_RLatLon0.09_PT072H.grib2 2026-05-03 15:14 2.4M
20260503T12Z_MSC_RDPS_SeeingIndex_EAtm_RLatLon0.09_PT072H.grib2 2026-05-03 15:14 1.0M
20260503T12Z_MSC_RDPS_SensibleHeatNetFlux_Sfc_RLatLon0.09_PT072H.grib2 2026-05-03 15:14 309K
20260503T12Z_MSC_RDPS_ShowalterIndex_IsbL-0500_RLatLon0.09_PT072H.grib2 2026-05-03 15:14 2.6M
20260503T12Z_MSC_RDPS_SkyTransparencyIndex_EAtm_RLatLon0.09_PT072H.grib2 2026-05-03 15:14 702K
20260503T12Z_MSC_RDPS_Snow-Accum12h_Sfc_RLatLon0.09_PT072H.grib2 2026-05-03 15:14 613K
20260503T12Z_MSC_RDPS_Snow-Accum1h_Sfc_RLatLon0.09_PT072H.grib2 2026-05-03 15:14 547K
20260503T12Z_MSC_RDPS_Snow-Accum24h_Sfc_RLatLon0.09_PT072H.grib2 2026-05-03 15:14 648K
20260503T12Z_MSC_RDPS_Snow-Accum3h_Sfc_RLatLon0.09_PT072H.grib2 2026-05-03 15:14 580K
20260503T12Z_MSC_RDPS_Snow-Accum6h_Sfc_RLatLon0.09_PT072H.grib2 2026-05-03 15:14 602K
20260503T12Z_MSC_RDPS_Snow-Accum_Sfc_RLatLon0.09_PT072H.grib2 2026-05-03 15:14 796K
20260503T12Z_MSC_RDPS_SnowDensity_Sfc_RLatLon0.09_PT072H.grib2 2026-05-03 15:14 175K
20260503T12Z_MSC_RDPS_SnowDepth_Sfc_RLatLon0.09_PT072H.grib2 2026-05-03 15:14 654K
20260503T12Z_MSC_RDPS_SoilTemp_DBS-0to10cm_RLatLon0.09_PT072H.grib2 2026-05-03 15:14 242K
20260503T12Z_MSC_RDPS_SoilTemp_Sfc_RLatLon0.09_PT072H.grib2 2026-05-03 15:14 269K
20260503T12Z_MSC_RDPS_SoilVolumetricIceContent_Sfc_RLatLon0.09_PT072H.grib2 2026-05-03 15:14 153K
20260503T12Z_MSC_RDPS_SoilVolumetricWaterContent_DBS-0to10cm_RLatLon0.09_PT072H.grib2 2026-05-03 15:14 280K
20260503T12Z_MSC_RDPS_SoilVolumetricWaterContent_DBS-0to1cm_RLatLon0.09_PT072H.grib2 2026-05-03 15:14 343K
20260503T12Z_MSC_RDPS_SpecificHumidity_AGL-120m_RLatLon0.09_PT072H.grib2 2026-05-03 15:14 496K
20260503T12Z_MSC_RDPS_SpecificHumidity_AGL-2m_RLatLon0.09_PT072H.grib2 2026-05-03 15:14 662K
20260503T12Z_MSC_RDPS_SpecificHumidity_AGL-40m_RLatLon0.09_PT072H.grib2 2026-05-03 15:14 501K
20260503T12Z_MSC_RDPS_SpecificHumidity_AGL-80m_RLatLon0.09_PT072H.grib2 2026-05-03 15:14 497K
20260503T12Z_MSC_RDPS_SpecificHumidity_IsbL-0001_RLatLon0.09_PT072H.grib2 2026-05-03 15:14 374K
20260503T12Z_MSC_RDPS_SpecificHumidity_IsbL-0005_RLatLon0.09_PT072H.grib2 2026-05-03 15:14 364K
20260503T12Z_MSC_RDPS_SpecificHumidity_IsbL-0010_RLatLon0.09_PT072H.grib2 2026-05-03 15:14 394K
20260503T12Z_MSC_RDPS_SpecificHumidity_IsbL-0020_RLatLon0.09_PT072H.grib2 2026-05-03 15:14 375K
20260503T12Z_MSC_RDPS_SpecificHumidity_IsbL-0030_RLatLon0.09_PT072H.grib2 2026-05-03 15:14 363K
20260503T12Z_MSC_RDPS_SpecificHumidity_IsbL-0050_RLatLon0.09_PT072H.grib2 2026-05-03 15:14 472K
20260503T12Z_MSC_RDPS_SpecificHumidity_IsbL-0100_RLatLon0.09_PT072H.grib2 2026-05-03 15:14 415K
20260503T12Z_MSC_RDPS_SpecificHumidity_IsbL-0150_RLatLon0.09_PT072H.grib2 2026-05-03 15:14 454K
20260503T12Z_MSC_RDPS_SpecificHumidity_IsbL-0175_RLatLon0.09_PT072H.grib2 2026-05-03 15:14 441K
20260503T12Z_MSC_RDPS_SpecificHumidity_IsbL-0200_RLatLon0.09_PT072H.grib2 2026-05-03 15:14 451K
20260503T12Z_MSC_RDPS_SpecificHumidity_IsbL-0225_RLatLon0.09_PT072H.grib2 2026-05-03 15:14 446K
20260503T12Z_MSC_RDPS_SpecificHumidity_IsbL-0250_RLatLon0.09_PT072H.grib2 2026-05-03 15:14 552K
20260503T12Z_MSC_RDPS_SpecificHumidity_IsbL-0275_RLatLon0.09_PT072H.grib2 2026-05-03 15:14 473K
20260503T12Z_MSC_RDPS_SpecificHumidity_IsbL-0300_RLatLon0.09_PT072H.grib2 2026-05-03 15:14 550K
20260503T12Z_MSC_RDPS_SpecificHumidity_IsbL-0350_RLatLon0.09_PT072H.grib2 2026-05-03 15:14 546K
20260503T12Z_MSC_RDPS_SpecificHumidity_IsbL-0400_RLatLon0.09_PT072H.grib2 2026-05-03 15:14 523K
20260503T12Z_MSC_RDPS_SpecificHumidity_IsbL-0450_RLatLon0.09_PT072H.grib2 2026-05-03 15:14 570K
20260503T12Z_MSC_RDPS_SpecificHumidity_IsbL-0500_RLatLon0.09_PT072H.grib2 2026-05-03 15:14 500K
20260503T12Z_MSC_RDPS_SpecificHumidity_IsbL-0550_RLatLon0.09_PT072H.grib2 2026-05-03 15:14 570K
20260503T12Z_MSC_RDPS_SpecificHumidity_IsbL-0600_RLatLon0.09_PT072H.grib2 2026-05-03 15:14 619K
20260503T12Z_MSC_RDPS_SpecificHumidity_IsbL-0650_RLatLon0.09_PT072H.grib2 2026-05-03 15:14 534K
20260503T12Z_MSC_RDPS_SpecificHumidity_IsbL-0700_RLatLon0.09_PT072H.grib2 2026-05-03 15:14 574K
20260503T12Z_MSC_RDPS_SpecificHumidity_IsbL-0750_RLatLon0.09_PT072H.grib2 2026-05-03 15:14 628K
20260503T12Z_MSC_RDPS_SpecificHumidity_IsbL-0800_RLatLon0.09_PT072H.grib2 2026-05-03 15:14 713K
20260503T12Z_MSC_RDPS_SpecificHumidity_IsbL-0850_RLatLon0.09_PT072H.grib2 2026-05-03 15:14 807K
20260503T12Z_MSC_RDPS_SpecificHumidity_IsbL-0875_RLatLon0.09_PT072H.grib2 2026-05-03 15:14 834K
20260503T12Z_MSC_RDPS_SpecificHumidity_IsbL-0900_RLatLon0.09_PT072H.grib2 2026-05-03 15:14 842K
20260503T12Z_MSC_RDPS_SpecificHumidity_IsbL-0925_RLatLon0.09_PT072H.grib2 2026-05-03 15:14 842K
20260503T12Z_MSC_RDPS_SpecificHumidity_IsbL-0950_RLatLon0.09_PT072H.grib2 2026-05-03 15:14 839K
20260503T12Z_MSC_RDPS_SpecificHumidity_IsbL-0970_RLatLon0.09_PT072H.grib2 2026-05-03 15:14 694K
20260503T12Z_MSC_RDPS_SpecificHumidity_IsbL-0985_RLatLon0.09_PT072H.grib2 2026-05-03 15:14 689K
20260503T12Z_MSC_RDPS_SpecificHumidity_IsbL-1000_RLatLon0.09_PT072H.grib2 2026-05-03 15:14 686K
20260503T12Z_MSC_RDPS_SpecificHumidity_IsbL-1015_RLatLon0.09_PT072H.grib2 2026-05-03 15:14 677K
20260503T12Z_MSC_RDPS_SpecificHumidity_Sfc_RLatLon0.09_PT072H.grib2 2026-05-03 15:14 296K
20260503T12Z_MSC_RDPS_StormRelativeHelicity_EtaL-10000_RLatLon0.09_PT072H.grib2 2026-05-03 15:14 1.1M
20260503T12Z_MSC_RDPS_StormSeverityIndex_EtaL-10000_RLatLon0.09_PT072H.grib2 2026-05-03 15:14 1.2M
20260503T12Z_MSC_RDPS_Thickness_IsbL-0850to0700_RLatLon0.09_PT072H.grib2 2026-05-03 15:14 177K
20260503T12Z_MSC_RDPS_Thickness_IsbL-1000to0500_RLatLon0.09_PT072H.grib2 2026-05-03 15:14 196K
20260503T12Z_MSC_RDPS_Thickness_IsbL-1000to0850_RLatLon0.09_PT072H.grib2 2026-05-03 15:14 261K
20260503T12Z_MSC_RDPS_TotalCloudCover_Sfc_RLatLon0.09_PT072H.grib2 2026-05-03 15:14 667K
20260503T12Z_MSC_RDPS_TotalTotalsIndex_Sfc_RLatLon0.09_PT072H.grib2 2026-05-03 15:14 2.4M
20260503T12Z_MSC_RDPS_UVIndex-ClearSky_Sfc_RLatLon0.09_PT072H.grib2 2026-05-03 15:14 147K
20260503T12Z_MSC_RDPS_UVIndex_Sfc_RLatLon0.09_PT072H.grib2 2026-05-03 15:14 361K
20260503T12Z_MSC_RDPS_UpwardLongwaveRadiationFlux_NTAtm_RLatLon0.09_PT072H.grib2 2026-05-03 15:14 481K
20260503T12Z_MSC_RDPS_UpwardShortwaveRadiationFlux_NTAtm_RLatLon0.09_PT072H.grib2 2026-05-03 15:14 320K
20260503T12Z_MSC_RDPS_VerticalVelocity_IsbL-0250_RLatLon0.09_PT072H.grib2 2026-05-03 15:14 452K
20260503T12Z_MSC_RDPS_VerticalVelocity_IsbL-0500_RLatLon0.09_PT072H.grib2 2026-05-03 15:14 552K
20260503T12Z_MSC_RDPS_VerticalVelocity_IsbL-0700_RLatLon0.09_PT072H.grib2 2026-05-03 15:14 594K
20260503T12Z_MSC_RDPS_VerticalVelocity_IsbL-0850_RLatLon0.09_PT072H.grib2 2026-05-03 15:14 697K
20260503T12Z_MSC_RDPS_VerticalWindShear_EtaL-6500_RLatLon0.09_PT072H.grib2 2026-05-03 15:14 1.2M
20260503T12Z_MSC_RDPS_WindChill_Sfc_RLatLon0.09_PT072H.grib2 2026-05-03 15:14 1.2M
20260503T12Z_MSC_RDPS_WindDir_AGL-10m_RLatLon0.09_PT072H.grib2 2026-05-03 15:14 1.0M
20260503T12Z_MSC_RDPS_WindDir_AGL-120m_RLatLon0.09_PT072H.grib2 2026-05-03 15:14 611K
20260503T12Z_MSC_RDPS_WindDir_AGL-40m_RLatLon0.09_PT072H.grib2 2026-05-03 15:14 642K
20260503T12Z_MSC_RDPS_WindDir_AGL-80m_RLatLon0.09_PT072H.grib2 2026-05-03 15:14 623K
20260503T12Z_MSC_RDPS_WindDir_IsbL-0001_RLatLon0.09_PT072H.grib2 2026-05-03 15:14 313K
20260503T12Z_MSC_RDPS_WindDir_IsbL-0005_RLatLon0.09_PT072H.grib2 2026-05-03 15:14 381K
20260503T12Z_MSC_RDPS_WindDir_IsbL-0010_RLatLon0.09_PT072H.grib2 2026-05-03 15:14 389K
20260503T12Z_MSC_RDPS_WindDir_IsbL-0020_RLatLon0.09_PT072H.grib2 2026-05-03 15:14 411K
20260503T12Z_MSC_RDPS_WindDir_IsbL-0030_RLatLon0.09_PT072H.grib2 2026-05-03 15:14 411K
20260503T12Z_MSC_RDPS_WindDir_IsbL-0050_RLatLon0.09_PT072H.grib2 2026-05-03 15:14 441K
20260503T12Z_MSC_RDPS_WindDir_IsbL-0100_RLatLon0.09_PT072H.grib2 2026-05-03 15:14 410K
20260503T12Z_MSC_RDPS_WindDir_IsbL-0150_RLatLon0.09_PT072H.grib2 2026-05-03 15:14 409K
20260503T12Z_MSC_RDPS_WindDir_IsbL-0175_RLatLon0.09_PT072H.grib2 2026-05-03 15:14 434K
20260503T12Z_MSC_RDPS_WindDir_IsbL-0200_RLatLon0.09_PT072H.grib2 2026-05-03 15:14 449K
20260503T12Z_MSC_RDPS_WindDir_IsbL-0225_RLatLon0.09_PT072H.grib2 2026-05-03 15:14 451K
20260503T12Z_MSC_RDPS_WindDir_IsbL-0250_RLatLon0.09_PT072H.grib2 2026-05-03 15:14 452K
20260503T12Z_MSC_RDPS_WindDir_IsbL-0275_RLatLon0.09_PT072H.grib2 2026-05-03 15:14 473K
20260503T12Z_MSC_RDPS_WindDir_IsbL-0300_RLatLon0.09_PT072H.grib2 2026-05-03 15:14 474K
20260503T12Z_MSC_RDPS_WindDir_IsbL-0350_RLatLon0.09_PT072H.grib2 2026-05-03 15:14 505K
20260503T12Z_MSC_RDPS_WindDir_IsbL-0400_RLatLon0.09_PT072H.grib2 2026-05-03 15:14 522K
20260503T12Z_MSC_RDPS_WindDir_IsbL-0450_RLatLon0.09_PT072H.grib2 2026-05-03 15:14 538K
20260503T12Z_MSC_RDPS_WindDir_IsbL-0500_RLatLon0.09_PT072H.grib2 2026-05-03 15:14 542K
20260503T12Z_MSC_RDPS_WindDir_IsbL-0550_RLatLon0.09_PT072H.grib2 2026-05-03 15:14 551K
20260503T12Z_MSC_RDPS_WindDir_IsbL-0600_RLatLon0.09_PT072H.grib2 2026-05-03 15:14 580K
20260503T12Z_MSC_RDPS_WindDir_IsbL-0650_RLatLon0.09_PT072H.grib2 2026-05-03 15:14 621K
20260503T12Z_MSC_RDPS_WindDir_IsbL-0700_RLatLon0.09_PT072H.grib2 2026-05-03 15:14 662K
20260503T12Z_MSC_RDPS_WindDir_IsbL-0750_RLatLon0.09_PT072H.grib2 2026-05-03 15:14 708K
20260503T12Z_MSC_RDPS_WindDir_IsbL-0800_RLatLon0.09_PT072H.grib2 2026-05-03 15:14 775K
20260503T12Z_MSC_RDPS_WindDir_IsbL-0850_RLatLon0.09_PT072H.grib2 2026-05-03 15:14 860K
20260503T12Z_MSC_RDPS_WindDir_IsbL-0875_RLatLon0.09_PT072H.grib2 2026-05-03 15:14 892K
20260503T12Z_MSC_RDPS_WindDir_IsbL-0900_RLatLon0.09_PT072H.grib2 2026-05-03 15:14 910K
20260503T12Z_MSC_RDPS_WindDir_IsbL-0925_RLatLon0.09_PT072H.grib2 2026-05-03 15:14 922K
20260503T12Z_MSC_RDPS_WindDir_IsbL-0950_RLatLon0.09_PT072H.grib2 2026-05-03 15:14 921K
20260503T12Z_MSC_RDPS_WindDir_IsbL-0970_RLatLon0.09_PT072H.grib2 2026-05-03 15:14 924K
20260503T12Z_MSC_RDPS_WindDir_IsbL-0985_RLatLon0.09_PT072H.grib2 2026-05-03 15:14 935K
20260503T12Z_MSC_RDPS_WindDir_IsbL-1000_RLatLon0.09_PT072H.grib2 2026-05-03 15:14 949K
20260503T12Z_MSC_RDPS_WindDir_IsbL-1015_RLatLon0.09_PT072H.grib2 2026-05-03 15:14 968K
20260503T12Z_MSC_RDPS_WindGust-Max_AGL-10m_RLatLon0.09_PT072H.grib2 2026-05-03 15:14 1.0M
20260503T12Z_MSC_RDPS_WindGust-Min_AGL-10m_RLatLon0.09_PT072H.grib2 2026-05-03 15:14 1.0M
20260503T12Z_MSC_RDPS_WindGust_AGL-10m_RLatLon0.09_PT072H.grib2 2026-05-03 15:14 1.0M
20260503T12Z_MSC_RDPS_WindSpeed_AGL-10m_RLatLon0.09_PT072H.grib2 2026-05-03 15:14 852K
20260503T12Z_MSC_RDPS_WindSpeed_AGL-120m_RLatLon0.09_PT072H.grib2 2026-05-03 15:14 551K
20260503T12Z_MSC_RDPS_WindSpeed_AGL-40m_RLatLon0.09_PT072H.grib2 2026-05-03 15:14 552K
20260503T12Z_MSC_RDPS_WindSpeed_AGL-80m_RLatLon0.09_PT072H.grib2 2026-05-03 15:14 551K
20260503T12Z_MSC_RDPS_WindSpeed_IsbL-0001_RLatLon0.09_PT072H.grib2 2026-05-03 15:14 332K
20260503T12Z_MSC_RDPS_WindSpeed_IsbL-0005_RLatLon0.09_PT072H.grib2 2026-05-03 15:14 293K
20260503T12Z_MSC_RDPS_WindSpeed_IsbL-0010_RLatLon0.09_PT072H.grib2 2026-05-03 15:14 364K
20260503T12Z_MSC_RDPS_WindSpeed_IsbL-0020_RLatLon0.09_PT072H.grib2 2026-05-03 15:14 419K
20260503T12Z_MSC_RDPS_WindSpeed_IsbL-0030_RLatLon0.09_PT072H.grib2 2026-05-03 15:14 319K
20260503T12Z_MSC_RDPS_WindSpeed_IsbL-0050_RLatLon0.09_PT072H.grib2 2026-05-03 15:14 351K
20260503T12Z_MSC_RDPS_WindSpeed_IsbL-0100_RLatLon0.09_PT072H.grib2 2026-05-03 15:14 473K
20260503T12Z_MSC_RDPS_WindSpeed_IsbL-0150_RLatLon0.09_PT072H.grib2 2026-05-03 15:14 398K
20260503T12Z_MSC_RDPS_WindSpeed_IsbL-0175_RLatLon0.09_PT072H.grib2 2026-05-03 15:14 422K
20260503T12Z_MSC_RDPS_WindSpeed_IsbL-0200_RLatLon0.09_PT072H.grib2 2026-05-03 15:14 436K
20260503T12Z_MSC_RDPS_WindSpeed_IsbL-0225_RLatLon0.09_PT072H.grib2 2026-05-03 15:14 441K
20260503T12Z_MSC_RDPS_WindSpeed_IsbL-0250_RLatLon0.09_PT072H.grib2 2026-05-03 15:14 442K
20260503T12Z_MSC_RDPS_WindSpeed_IsbL-0275_RLatLon0.09_PT072H.grib2 2026-05-03 15:14 462K
20260503T12Z_MSC_RDPS_WindSpeed_IsbL-0300_RLatLon0.09_PT072H.grib2 2026-05-03 15:14 463K
20260503T12Z_MSC_RDPS_WindSpeed_IsbL-0350_RLatLon0.09_PT072H.grib2 2026-05-03 15:14 479K
20260503T12Z_MSC_RDPS_WindSpeed_IsbL-0400_RLatLon0.09_PT072H.grib2 2026-05-03 15:14 482K
20260503T12Z_MSC_RDPS_WindSpeed_IsbL-0450_RLatLon0.09_PT072H.grib2 2026-05-03 15:14 461K
20260503T12Z_MSC_RDPS_WindSpeed_IsbL-0500_RLatLon0.09_PT072H.grib2 2026-05-03 15:14 460K
20260503T12Z_MSC_RDPS_WindSpeed_IsbL-0550_RLatLon0.09_PT072H.grib2 2026-05-03 15:14 577K
20260503T12Z_MSC_RDPS_WindSpeed_IsbL-0600_RLatLon0.09_PT072H.grib2 2026-05-03 15:14 585K
20260503T12Z_MSC_RDPS_WindSpeed_IsbL-0650_RLatLon0.09_PT072H.grib2 2026-05-03 15:14 647K
20260503T12Z_MSC_RDPS_WindSpeed_IsbL-0700_RLatLon0.09_PT072H.grib2 2026-05-03 15:14 671K
20260503T12Z_MSC_RDPS_WindSpeed_IsbL-0750_RLatLon0.09_PT072H.grib2 2026-05-03 15:14 702K
20260503T12Z_MSC_RDPS_WindSpeed_IsbL-0800_RLatLon0.09_PT072H.grib2 2026-05-03 15:14 753K
20260503T12Z_MSC_RDPS_WindSpeed_IsbL-0850_RLatLon0.09_PT072H.grib2 2026-05-03 15:14 819K
20260503T12Z_MSC_RDPS_WindSpeed_IsbL-0875_RLatLon0.09_PT072H.grib2 2026-05-03 15:14 851K
20260503T12Z_MSC_RDPS_WindSpeed_IsbL-0900_RLatLon0.09_PT072H.grib2 2026-05-03 15:14 867K
20260503T12Z_MSC_RDPS_WindSpeed_IsbL-0925_RLatLon0.09_PT072H.grib2 2026-05-03 15:14 876K
20260503T12Z_MSC_RDPS_WindSpeed_IsbL-0950_RLatLon0.09_PT072H.grib2 2026-05-03 15:14 880K
20260503T12Z_MSC_RDPS_WindSpeed_IsbL-0970_RLatLon0.09_PT072H.grib2 2026-05-03 15:14 876K
20260503T12Z_MSC_RDPS_WindSpeed_IsbL-0985_RLatLon0.09_PT072H.grib2 2026-05-03 15:14 867K
20260503T12Z_MSC_RDPS_WindSpeed_IsbL-1000_RLatLon0.09_PT072H.grib2 2026-05-03 15:14 861K
20260503T12Z_MSC_RDPS_WindSpeed_IsbL-1015_RLatLon0.09_PT072H.grib2 2026-05-03 15:14 852K
20260503T12Z_MSC_RDPS_WindU_AGL-10m_RLatLon0.09_PT072H.grib2 2026-05-03 15:14 437K
20260503T12Z_MSC_RDPS_WindU_AGL-120m_RLatLon0.09_PT072H.grib2 2026-05-03 15:14 543K
20260503T12Z_MSC_RDPS_WindU_AGL-40m_RLatLon0.09_PT072H.grib2 2026-05-03 15:14 546K
20260503T12Z_MSC_RDPS_WindU_AGL-80m_RLatLon0.09_PT072H.grib2 2026-05-03 15:14 545K
20260503T12Z_MSC_RDPS_WindU_IsbL-0001_RLatLon0.09_PT072H.grib2 2026-05-03 15:14 243K
20260503T12Z_MSC_RDPS_WindU_IsbL-0005_RLatLon0.09_PT072H.grib2 2026-05-03 15:14 283K
20260503T12Z_MSC_RDPS_WindU_IsbL-0010_RLatLon0.09_PT072H.grib2 2026-05-03 15:14 294K
20260503T12Z_MSC_RDPS_WindU_IsbL-0020_RLatLon0.09_PT072H.grib2 2026-05-03 15:14 313K
20260503T12Z_MSC_RDPS_WindU_IsbL-0030_RLatLon0.09_PT072H.grib2 2026-05-03 15:14 350K
20260503T12Z_MSC_RDPS_WindU_IsbL-0050_RLatLon0.09_PT072H.grib2 2026-05-03 15:14 379K
20260503T12Z_MSC_RDPS_WindU_IsbL-0100_RLatLon0.09_PT072H.grib2 2026-05-03 15:14 333K
20260503T12Z_MSC_RDPS_WindU_IsbL-0150_RLatLon0.09_PT072H.grib2 2026-05-03 15:14 392K
20260503T12Z_MSC_RDPS_WindU_IsbL-0175_RLatLon0.09_PT072H.grib2 2026-05-03 15:14 416K
20260503T12Z_MSC_RDPS_WindU_IsbL-0200_RLatLon0.09_PT072H.grib2 2026-05-03 15:14 333K
20260503T12Z_MSC_RDPS_WindU_IsbL-0225_RLatLon0.09_PT072H.grib2 2026-05-03 15:14 335K
20260503T12Z_MSC_RDPS_WindU_IsbL-0250_RLatLon0.09_PT072H.grib2 2026-05-03 15:14 334K
20260503T12Z_MSC_RDPS_WindU_IsbL-0275_RLatLon0.09_PT072H.grib2 2026-05-03 15:14 350K
20260503T12Z_MSC_RDPS_WindU_IsbL-0300_RLatLon0.09_PT072H.grib2 2026-05-03 15:14 350K
20260503T12Z_MSC_RDPS_WindU_IsbL-0350_RLatLon0.09_PT072H.grib2 2026-05-03 15:14 362K
20260503T12Z_MSC_RDPS_WindU_IsbL-0400_RLatLon0.09_PT072H.grib2 2026-05-03 15:14 468K
20260503T12Z_MSC_RDPS_WindU_IsbL-0450_RLatLon0.09_PT072H.grib2 2026-05-03 15:14 466K
20260503T12Z_MSC_RDPS_WindU_IsbL-0500_RLatLon0.09_PT072H.grib2 2026-05-03 15:14 466K
20260503T12Z_MSC_RDPS_WindU_IsbL-0550_RLatLon0.09_PT072H.grib2 2026-05-03 15:14 465K
20260503T12Z_MSC_RDPS_WindU_IsbL-0600_RLatLon0.09_PT072H.grib2 2026-05-03 15:14 473K
20260503T12Z_MSC_RDPS_WindU_IsbL-0650_RLatLon0.09_PT072H.grib2 2026-05-03 15:14 490K
20260503T12Z_MSC_RDPS_WindU_IsbL-0700_RLatLon0.09_PT072H.grib2 2026-05-03 15:14 510K
20260503T12Z_MSC_RDPS_WindU_IsbL-0750_RLatLon0.09_PT072H.grib2 2026-05-03 15:14 523K
20260503T12Z_MSC_RDPS_WindU_IsbL-0800_RLatLon0.09_PT072H.grib2 2026-05-03 15:14 568K
20260503T12Z_MSC_RDPS_WindU_IsbL-0850_RLatLon0.09_PT072H.grib2 2026-05-03 15:14 632K
20260503T12Z_MSC_RDPS_WindU_IsbL-0875_RLatLon0.09_PT072H.grib2 2026-05-03 15:14 655K
20260503T12Z_MSC_RDPS_WindU_IsbL-0900_RLatLon0.09_PT072H.grib2 2026-05-03 15:14 667K
20260503T12Z_MSC_RDPS_WindU_IsbL-0925_RLatLon0.09_PT072H.grib2 2026-05-03 15:14 674K
20260503T12Z_MSC_RDPS_WindU_IsbL-0950_RLatLon0.09_PT072H.grib2 2026-05-03 15:14 670K
20260503T12Z_MSC_RDPS_WindU_IsbL-0970_RLatLon0.09_PT072H.grib2 2026-05-03 15:14 663K
20260503T12Z_MSC_RDPS_WindU_IsbL-0985_RLatLon0.09_PT072H.grib2 2026-05-03 15:14 799K
20260503T12Z_MSC_RDPS_WindU_IsbL-1000_RLatLon0.09_PT072H.grib2 2026-05-03 15:14 795K
20260503T12Z_MSC_RDPS_WindU_IsbL-1015_RLatLon0.09_PT072H.grib2 2026-05-03 15:14 836K
20260503T12Z_MSC_RDPS_WindV_AGL-10m_RLatLon0.09_PT072H.grib2 2026-05-03 15:14 438K
20260503T12Z_MSC_RDPS_WindV_AGL-120m_RLatLon0.09_PT072H.grib2 2026-05-03 15:14 425K
20260503T12Z_MSC_RDPS_WindV_AGL-40m_RLatLon0.09_PT072H.grib2 2026-05-03 15:14 546K
20260503T12Z_MSC_RDPS_WindV_AGL-80m_RLatLon0.09_PT072H.grib2 2026-05-03 15:14 544K
20260503T12Z_MSC_RDPS_WindV_IsbL-0001_RLatLon0.09_PT072H.grib2 2026-05-03 15:14 248K
20260503T12Z_MSC_RDPS_WindV_IsbL-0005_RLatLon0.09_PT072H.grib2 2026-05-03 15:14 287K
20260503T12Z_MSC_RDPS_WindV_IsbL-0010_RLatLon0.09_PT072H.grib2 2026-05-03 15:14 297K
20260503T12Z_MSC_RDPS_WindV_IsbL-0020_RLatLon0.09_PT072H.grib2 2026-05-03 15:14 317K
20260503T12Z_MSC_RDPS_WindV_IsbL-0030_RLatLon0.09_PT072H.grib2 2026-05-03 15:14 314K
20260503T12Z_MSC_RDPS_WindV_IsbL-0050_RLatLon0.09_PT072H.grib2 2026-05-03 15:14 345K
20260503T12Z_MSC_RDPS_WindV_IsbL-0100_RLatLon0.09_PT072H.grib2 2026-05-03 15:14 330K
20260503T12Z_MSC_RDPS_WindV_IsbL-0150_RLatLon0.09_PT072H.grib2 2026-05-03 15:14 389K
20260503T12Z_MSC_RDPS_WindV_IsbL-0175_RLatLon0.09_PT072H.grib2 2026-05-03 15:14 412K
20260503T12Z_MSC_RDPS_WindV_IsbL-0200_RLatLon0.09_PT072H.grib2 2026-05-03 15:14 330K
20260503T12Z_MSC_RDPS_WindV_IsbL-0225_RLatLon0.09_PT072H.grib2 2026-05-03 15:14 334K
20260503T12Z_MSC_RDPS_WindV_IsbL-0250_RLatLon0.09_PT072H.grib2 2026-05-03 15:14 335K
20260503T12Z_MSC_RDPS_WindV_IsbL-0275_RLatLon0.09_PT072H.grib2 2026-05-03 15:14 351K
20260503T12Z_MSC_RDPS_WindV_IsbL-0300_RLatLon0.09_PT072H.grib2 2026-05-03 15:14 375K
20260503T12Z_MSC_RDPS_WindV_IsbL-0350_RLatLon0.09_PT072H.grib2 2026-05-03 15:14 385K
20260503T12Z_MSC_RDPS_WindV_IsbL-0400_RLatLon0.09_PT072H.grib2 2026-05-03 15:14 364K
20260503T12Z_MSC_RDPS_WindV_IsbL-0450_RLatLon0.09_PT072H.grib2 2026-05-03 15:14 362K
20260503T12Z_MSC_RDPS_WindV_IsbL-0500_RLatLon0.09_PT072H.grib2 2026-05-03 15:14 465K
20260503T12Z_MSC_RDPS_WindV_IsbL-0550_RLatLon0.09_PT072H.grib2 2026-05-03 15:14 464K
20260503T12Z_MSC_RDPS_WindV_IsbL-0600_RLatLon0.09_PT072H.grib2 2026-05-03 15:14 470K
20260503T12Z_MSC_RDPS_WindV_IsbL-0650_RLatLon0.09_PT072H.grib2 2026-05-03 15:14 487K
20260503T12Z_MSC_RDPS_WindV_IsbL-0700_RLatLon0.09_PT072H.grib2 2026-05-03 15:14 506K
20260503T12Z_MSC_RDPS_WindV_IsbL-0750_RLatLon0.09_PT072H.grib2 2026-05-03 15:14 518K
20260503T12Z_MSC_RDPS_WindV_IsbL-0800_RLatLon0.09_PT072H.grib2 2026-05-03 15:14 563K
20260503T12Z_MSC_RDPS_WindV_IsbL-0850_RLatLon0.09_PT072H.grib2 2026-05-03 15:14 627K
20260503T12Z_MSC_RDPS_WindV_IsbL-0875_RLatLon0.09_PT072H.grib2 2026-05-03 15:14 649K
20260503T12Z_MSC_RDPS_WindV_IsbL-0900_RLatLon0.09_PT072H.grib2 2026-05-03 15:14 662K
20260503T12Z_MSC_RDPS_WindV_IsbL-0925_RLatLon0.09_PT072H.grib2 2026-05-03 15:14 670K
20260503T12Z_MSC_RDPS_WindV_IsbL-0950_RLatLon0.09_PT072H.grib2 2026-05-03 15:14 669K
20260503T12Z_MSC_RDPS_WindV_IsbL-0970_RLatLon0.09_PT072H.grib2 2026-05-03 15:14 665K
20260503T12Z_MSC_RDPS_WindV_IsbL-0985_RLatLon0.09_PT072H.grib2 2026-05-03 15:14 662K
20260503T12Z_MSC_RDPS_WindV_IsbL-1000_RLatLon0.09_PT072H.grib2 2026-05-03 15:14 657K
20260503T12Z_MSC_RDPS_WindV_IsbL-1015_RLatLon0.09_PT072H.grib2 2026-05-03 15:14 789K